| time (UTC) | temp C | wind direction | speed KPH | gust KPH | rain 1hr cm | rain 24hr cm | rain mn cm | humidity % | barometer mb |
| 20260904162010 | 30 | 53 | 1.6 | 8.0 | 0.00 | 0.00 | 0.00 | 82 | 1015.8 |
| 20260904161523 | 30 | 36 | 4.8 | 8.0 | 0.00 | 0.00 | 0.00 | 80 | 1015.8 |
| 20260904161015 | 30 | 33 | 3.2 | 6.4 | 0.00 | 0.00 | 0.00 | 80 | 1015.8 |
| 20260904160513 | 30 | 76 | 3.2 | 9.7 | 0.00 | 0.00 | 0.00 | 79 | 1015.8 |
| 20260904160028 | 30 | 109 | 4.8 | 8.0 | 0.00 | 0.00 | 0.00 | 77 | 1015.7 |
| 20260904155515 | 30 | 88 | 3.2 | 8.0 | 0.00 | 0.00 | 0.00 | 81 | 1015.7 |
| 20260904155016 | 30 | 91 | 3.2 | 8.0 | 0.00 | 0.00 | 0.00 | 78 | 1015.7 |
| 20260904154531 | 30 | 98 | 3.2 | 4.8 | 0.00 | 0.00 | 0.00 | 81 | 1015.6 |
| 20260904154017 | 29 | 88 | 0.0 | 0.0 | 0.00 | 0.00 | 0.00 | 78 | 1015.6 |
| 20260904153516 | 29 | 42 | 0.0 | 0.0 | 0.00 | 0.00 | 0.00 | 80 | 1015.6 |
| 20260904153032 | 29 | 42 | 0.0 | 4.8 | 0.00 | 0.00 | 0.00 | 79 | 1015.5 |
| 20260904152507 | 29 | 42 | 1.6 | 4.8 | 0.00 | 0.00 | 0.00 | 80 | 1015.5 |
| 20260904152006 | 29 | 113 | 1.6 | 9.7 | 0.00 | 0.00 | 0.00 | 81 | 1015.5 |
| 20260904151520 | 29 | 130 | 4.8 | 9.7 | 0.00 | 0.00 | 0.00 | 80 | 1015.5 |
| 20260904151012 | 29 | 27 | 1.6 | 4.8 | 0.00 | 0.00 | 0.00 | 83 | 1015.5 |
| 20260904150512 | 28 | 118 | 3.2 | 4.8 | 0.00 | 0.00 | 0.00 | 83 | 1015.4 |
| 20260904150033 | 28 | 142 | 4.8 | 6.4 | 0.00 | 0.00 | 0.00 | 83 | 1015.4 |
| 20260904145514 | 28 | 102 | 0.0 | 6.4 | 0.00 | 0.00 | 0.00 | 84 | 1015.4 |
| 20260904145017 | 28 | 92 | 3.2 | 4.8 | 0.00 | 0.00 | 0.00 | 86 | 1015.4 |
| 20260904144507 | 28 | 137 | 1.6 | 6.4 | 0.00 | 0.00 | 0.00 | 85 | 1015.3 |
| 20260904144004 | 28 | 119 | 1.6 | 8.0 | 0.00 | 0.00 | 0.00 | 86 | 1015.3 |
| 20260904143505 | 28 | 129 | 3.2 | 8.0 | 0.00 | 0.00 | 0.00 | 85 | 1015.2 |
| 20260904143011 | 28 | 97 | 3.2 | 6.4 | 0.00 | 0.00 | 0.00 | 86 | 1015.3 |
| 20260904142506 | 28 | 76 | 1.6 | 8.0 | 0.00 | 0.00 | 0.00 | 87 | 1015.2 |
| 20260904142009 | 28 | 129 | 3.2 | 12.9 | 0.00 | 0.00 | 0.00 | 85 | 1015.3 |
| 20260904141517 | 28 | 101 | 4.8 | 12.9 | 0.00 | 0.00 | 0.00 | 86 | 1015.3 |
| 20260904141009 | 28 | 67 | 3.2 | 8.0 | 0.00 | 0.00 | 0.00 | 86 | 1015.3 |
| 20260904140510 | 27 | 87 | 0.0 | 6.4 | 0.00 | 0.00 | 0.00 | 87 | 1015.3 |
| 20260904140025 | 27 | 105 | 1.6 | 6.4 | 0.00 | 0.00 | 0.00 | 87 | 1015.3 |
| 20260904135513 | 27 | 111 | 3.2 | 6.4 | 0.00 | 0.00 | 0.00 | 87 | 1015.3 |
| 20260904135014 | 27 | 114 | 3.2 | 6.4 | 0.00 | 0.00 | 0.00 | 88 | 1015.3 |
| 20260904134531 | 27 | 98 | 1.6 | 8.0 | 0.00 | 0.00 | 0.00 | 89 | 1015.3 |
| 20260904134016 | 27 | 105 | 3.2 | 9.7 | 0.00 | 0.00 | 0.00 | 90 | 1015.2 |
| 20260904133503 | 26 | 127 | 6.4 | 9.7 | 0.00 | 0.00 | 0.00 | 90 | 1015.3 |
| 20260904133009 | 26 | 78 | 3.2 | 8.0 | 0.00 | 0.00 | 0.00 | 91 | 1015.3 |
| 20260904132505 | 26 | 107 | 4.8 | 9.7 | 0.00 | 0.00 | 0.00 | 90 | 1015.4 |
| 20260904132002 | 26 | 103 | 3.2 | 9.7 | 0.00 | 0.00 | 0.00 | 90 | 1015.3 |
| 20260904131518 | 26 | 129 | 3.2 | 9.7 | 0.00 | 0.00 | 0.00 | 91 | 1015.4 |
| 20260904131009 | 26 | 132 | 4.8 | 9.7 | 0.00 | 0.00 | 0.00 | 90 | 1015.4 |
| 20260904130509 | 26 | 86 | 3.2 | 9.7 | 0.00 | 0.00 | 0.00 | 91 | 1015.4 |
| 20260904130020 | 26 | 101 | 3.2 | 6.4 | 0.00 | 0.00 | 0.00 | 91 | 1015.3 |
| 20260904125513 | 26 | 94 | 4.8 | 8.0 | 0.00 | 0.00 | 0.00 | 91 | 1015.2 |
| 20260904125016 | 26 | 88 | 3.2 | 8.0 | 0.00 | 0.00 | 0.00 | 91 | 1015.2 |
| 20260904124528 | 26 | 69 | 4.8 | 8.0 | 0.00 | 0.00 | 0.00 | 91 | 1015.2 |
| 20260904124013 | 26 | 54 | 4.8 | 6.4 | 0.00 | 0.00 | 0.00 | 92 | 1015.2 |
| 20260904123519 | 25 | 82 | 4.8 | 6.4 | 0.00 | 0.00 | 0.00 | 93 | 1015.2 |
| 20260904123008 | 25 | 83 | 3.2 | 6.4 | 0.00 | 0.00 | 0.00 | 93 | 1015.2 |
| 20260904122505 | 25 | 69 | 0.0 | 0.0 | 0.00 | 0.00 | 0.00 | 93 | 1015.1 |
| 20260904122005 | 25 | 65 | 0.0 | 3.2 | 0.00 | 0.00 | 0.00 | 94 | 1015.1 |
| 20260904121514 | 25 | 90 | 0.0 | 4.8 | 0.00 | 0.00 | 0.00 | 94 | 1015.0 |
| 20260904121008 | 25 | 90 | 1.6 | 4.8 | 0.00 | 0.00 | 0.00 | 94 | 1015.0 |
| 20260904120510 | 25 | 77 | 1.6 | 4.8 | 0.00 | 0.00 | 0.00 | 94 | 1014.8 |
| 20260904120027 | 24 | 71 | 0.0 | 3.2 | 0.00 | 0.00 | 0.00 | 95 | 1014.9 |
| 20260904115510 | 24 | 146 | 0.0 | 3.2 | 0.00 | 0.00 | 0.00 | 95 | 1014.9 |
| 20260904115013 | 24 | 69 | 0.0 | 3.2 | 0.00 | 0.00 | 0.00 | 96 | 1014.8 |
| 20260904114528 | 24 | 37 | 0.0 | 0.0 | 0.00 | 0.00 | 0.00 | 96 | 1014.6 |
| 20260904114015 | 24 | 59 | 0.0 | 0.0 | 0.00 | 0.00 | 0.00 | 95 | 1014.5 |
| 20260904113514 | 24 | 93 | 0.0 | 0.0 | 0.00 | 0.00 | 0.00 | 95 | 1014.5 |
| 20260904113032 | 24 | 93 | 0.0 | 0.0 | 0.00 | 0.00 | 0.00 | 95 | 1014.4 |
| 20260904112517 | 24 | 84 | 0.0 | 0.0 | 0.00 | 0.00 | 0.00 | 95 | 1014.4 |
| 20260904112004 | 24 | 84 | 0.0 | 0.0 | 0.00 | 0.00 | 0.00 | 95 | 1014.4 |
| 20260904111514 | 24 | 65 | 0.0 | 1.6 | 0.00 | 0.00 | 0.00 | 95 | 1014.2 |
| 20260904111006 | 24 | 67 | 0.0 | 4.8 | 0.00 | 0.00 | 0.00 | 95 | 1014.3 |
| 20260904110509 | 24 | 80 | 1.6 | 4.8 | 0.00 | 0.00 | 0.00 | 95 | 1014.3 |
| 20260904110021 | 24 | 34 | 0.0 | 4.8 | 0.00 | 0.00 | 0.00 | 95 | 1014.3 |
| 20260904105510 | 24 | 46 | 1.6 | 6.4 | 0.00 | 0.00 | 0.00 | 95 | 1014.3 |
| 20260904105013 | 24 | 39 | 1.6 | 6.4 | 0.00 | 0.00 | 0.00 | 95 | 1014.3 |
| 20260904104527 | 24 | 45 | 0.0 | 6.4 | 0.00 | 0.00 | 0.00 | 95 | 1014.3 |
| 20260904104016 | 24 | 66 | 0.0 | 0.0 | 0.00 | 0.00 | 0.00 | 95 | 1014.4 |
| 20260904103514 | 24 | 74 | 0.0 | 0.0 | 0.00 | 0.00 | 0.00 | 95 | 1014.4 |
| 20260904103030 | 24 | 59 | 0.0 | 1.6 | 0.00 | 0.00 | 0.00 | 95 | 1014.3 |
| 20260904102517 | 24 | 28 | 0.0 | 4.8 | 0.00 | 0.00 | 0.00 | 95 | 1014.3 |
| 20260904102018 | 24 | 55 | 1.6 | 6.4 | 0.00 | 0.00 | 0.00 | 95 | 1014.3 |
| 20260904101533 | 24 | 33 | 1.6 | 6.4 | 0.00 | 0.00 | 0.00 | 95 | 1014.2 |
| 20260904101007 | 24 | 38 | 0.0 | 3.2 | 0.00 | 0.00 | 0.00 | 96 | 1014.2 |
| 20260904100510 | 24 | 9 | 0.0 | 0.0 | 0.00 | 0.00 | 0.00 | 96 | 1014.2 |
| 20260904100026 | 24 | 22 | 0.0 | 3.2 | 0.00 | 0.00 | 0.00 | 96 | 1014.2 |
| 20260904095512 | 24 | 43 | 0.0 | 3.2 | 0.00 | 0.00 | 0.00 | 96 | 1014.2 |
| 20260904095009 | 24 | 28 | 0.0 | 3.2 | 0.00 | 0.00 | 0.00 | 96 | 1014.2 |
| 20260904094526 | 25 | 28 | 1.6 | 3.2 | 0.00 | 0.00 | 0.00 | 96 | 1014.2 |
| 20260904094010 | 25 | 11 | 0.0 | 3.2 | 0.00 | 0.00 | 0.00 | 96 | 1014.2 |
| 20260904093514 | 25 | 11 | 0.0 | 0.0 | 0.00 | 0.00 | 0.00 | 96 | 1014.2 |
| 20260904093051 | 25 | 11 | 0.0 | 0.0 | 0.00 | 0.00 | 0.00 | 96 | 1014.1 |
| 20260904092516 | 25 | 58 | 0.0 | 0.0 | 0.00 | 0.00 | 0.00 | 96 | 1014.1 |
| 20260904092015 | 25 | 58 | 0.0 | 0.0 | 0.00 | 0.00 | 0.00 | 96 | 1014.1 |
| 20260904091534 | 25 | 58 | 0.0 | 3.2 | 0.00 | 0.00 | 0.00 | 96 | 1014.1 |
| 20260904091015 | 25 | 59 | 0.0 | 3.2 | 0.00 | 0.00 | 0.00 | 96 | 1014.1 |
| 20260904090516 | 25 | 348 | 0.0 | 0.0 | 0.00 | 0.00 | 0.00 | 96 | 1014.1 |
| 20260904090014 | 24 | 348 | 0.0 | 0.0 | 0.00 | 0.00 | 0.00 | 96 | 1014.0 |
| 20260904085506 | 24 | 348 | 0.0 | 0.0 | 0.00 | 0.00 | 0.00 | 96 | 1014.0 |
| 20260904085008 | 24 | 348 | 0.0 | 0.0 | 0.00 | 0.00 | 0.00 | 95 | 1014.1 |
| 20260904084524 | 25 | 348 | 0.0 | 0.0 | 0.00 | 0.00 | 0.00 | 96 | 1014.0 |
| 20260904084010 | 25 | 348 | 0.0 | 0.0 | 0.00 | 0.00 | 0.00 | 96 | 1013.9 |
| 20260904083513 | 25 | 13 | 0.0 | 0.0 | 0.00 | 0.00 | 0.00 | 96 | 1013.9 |
| 20260904083026 | 25 | 22 | 0.0 | 0.0 | 0.00 | 0.00 | 0.00 | 96 | 1013.9 |
| 20260904082515 | 25 | 5 | 0.0 | 0.0 | 0.00 | 0.00 | 0.00 | 96 | 1013.9 |
| 20260904082011 | 25 | 5 | 0.0 | 0.0 | 0.00 | 0.00 | 0.00 | 96 | 1013.8 |
| 20260904081530 | 25 | 5 | 0.0 | 0.0 | 0.00 | 0.00 | 0.00 | 96 | 1013.8 |
| 20260904081017 | 25 | 5 | 0.0 | 0.0 | 0.00 | 0.00 | 0.00 | 96 | 1013.7 |
| 20260904080516 | 25 | 5 | 0.0 | 0.0 | 0.00 | 0.00 | 0.00 | 95 | 1013.7 |
| 20260904080034 | 25 | 5 | 0.0 | 0.0 | 0.00 | 0.00 | 0.00 | 95 | 1013.6 |
| 20260904075518 | 25 | 5 | 0.0 | 0.0 | 0.00 | 0.00 | 0.00 | 95 | 1013.6 |
| 20260904075010 | 25 | 5 | 0.0 | 0.0 | 0.00 | 0.00 | 0.00 | 95 | 1013.7 |
| 20260904074521 | 25 | 5 | 0.0 | 0.0 | 0.00 | 0.00 | 0.00 | 95 | 1013.8 |
| 20260904074009 | 25 | 5 | 0.0 | 0.0 | 0.00 | 0.00 | 0.00 | 95 | 1013.9 |
| 20260904073511 | 25 | 5 | 0.0 | 0.0 | 0.00 | 0.00 | 0.00 | 95 | 1013.9 |
| 20260904073048 | 25 | 5 | 0.0 | 0.0 | 0.00 | 0.00 | 0.00 | 95 | 1013.9 |
| 20260904072511 | 25 | 5 | 0.0 | 0.0 | 0.00 | 0.00 | 0.00 | 95 | 1013.9 |
| 20260904072014 | 25 | 5 | 0.0 | 0.0 | 0.00 | 0.00 | 0.00 | 95 | 1014.0 |
| 20260904071535 | 25 | 5 | 0.0 | 0.0 | 0.00 | 0.00 | 0.00 | 95 | 1014.0 |
| 20260904071016 | 25 | 5 | 0.0 | 0.0 | 0.00 | 0.00 | 0.00 | 95 | 1014.0 |
| 20260904070514 | 25 | 5 | 0.0 | 0.0 | 0.00 | 0.00 | 0.00 | 95 | 1014.0 |
| 20260904070033 | 25 | 5 | 0.0 | 0.0 | 0.00 | 0.00 | 0.00 | 95 | 1014.0 |
| 20260904065519 | 25 | 9 | 0.0 | 0.0 | 0.00 | 0.00 | 0.00 | 95 | 1014.0 |
| 20260904065017 | 25 | 5 | 0.0 | 0.0 | 0.00 | 0.00 | 0.00 | 95 | 1014.1 |
| 20260904064532 | 25 | 5 | 0.0 | 0.0 | 0.00 | 0.00 | 0.00 | 95 | 1014.1 |
| 20260904064009 | 25 | 5 | 0.0 | 0.0 | 0.00 | 0.00 | 0.00 | 95 | 1014.2 |
| 20260904063509 | 25 | 5 | 0.0 | 1.6 | 0.00 | 0.00 | 0.00 | 95 | 1014.3 |
| 20260904063026 | 25 | 13 | 0.0 | 1.6 | 0.00 | 0.00 | 0.00 | 95 | 1014.3 |
| 20260904062513 | 25 | 331 | 0.0 | 0.0 | 0.00 | 0.00 | 0.00 | 95 | 1014.4 |
| 20260904062013 | 25 | 331 | 0.0 | 0.0 | 0.00 | 0.00 | 0.00 | 95 | 1014.4 |
| 20260904061531 | 25 | 331 | 0.0 | 0.0 | 0.00 | 0.00 | 0.00 | 95 | 1014.3 |
| 20260904061014 | 25 | 331 | 0.0 | 0.0 | 0.00 | 0.00 | 0.00 | 95 | 1014.4 |
| 20260904060514 | 25 | 331 | 0.0 | 0.0 | 0.00 | 0.00 | 0.00 | 95 | 1014.5 |
| 20260904060032 | 25 | 331 | 0.0 | 0.0 | 0.00 | 0.00 | 0.00 | 95 | 1014.5 |
| 20260904055521 | 25 | 331 | 0.0 | 0.0 | 0.00 | 0.00 | 0.00 | 95 | 1014.6 |
| 20260904055008 | 25 | 331 | 0.0 | 0.0 | 0.00 | 0.00 | 0.00 | 95 | 1014.7 |
| 20260904054517 | 25 | 331 | 0.0 | 0.0 | 0.00 | 0.00 | 0.00 | 95 | 1014.6 |
| 20260904054007 | 25 | 331 | 0.0 | 0.0 | 0.00 | 0.00 | 0.00 | 94 | 1014.6 |
| 20260904053510 | 25 | 331 | 0.0 | 0.0 | 0.00 | 0.00 | 0.00 | 94 | 1014.6 |
| 20260904053027 | 25 | 331 | 0.0 | 0.0 | 0.00 | 0.00 | 0.00 | 94 | 1014.6 |
| 20260904052512 | 25 | 311 | 0.0 | 0.0 | 0.00 | 0.00 | 0.00 | 94 | 1014.7 |
| 20260904052003 | 25 | 186 | 0.0 | 0.0 | 0.00 | 0.00 | 0.00 | 94 | 1014.8 |
| 20260904051506 | 25 | 186 | 0.0 | 0.0 | 0.00 | 0.00 | 0.00 | 94 | 1014.8 |
| 20260904051002 | 25 | 186 | 0.0 | 0.0 | 0.00 | 0.00 | 0.00 | 94 | 1014.7 |
| 20260904050502 | 25 | 186 | 0.0 | 0.0 | 0.00 | 0.00 | 0.00 | 94 | 1014.7 |
| 20260904050008 | 25 | 186 | 0.0 | 0.0 | 0.00 | 0.00 | 0.00 | 94 | 1014.8 |
| 20260904045504 | 25 | 186 | 0.0 | 0.0 | 0.00 | 0.00 | 0.00 | 93 | 1015.0 |
| 20260904045004 | 25 | 186 | 0.0 | 0.0 | 0.00 | 0.00 | 0.00 | 93 | 1014.9 |
| 20260904044514 | 25 | 186 | 0.0 | 0.0 | 0.00 | 0.00 | 0.00 | 93 | 1014.9 |
| 20260904044008 | 25 | 186 | 0.0 | 0.0 | 0.00 | 0.00 | 0.00 | 93 | 1014.9 |
| 20260904043506 | 25 | 186 | 0.0 | 0.0 | 0.00 | 0.00 | 0.00 | 93 | 1014.9 |
| 20260904043021 | 25 | 186 | 0.0 | 0.0 | 0.00 | 0.00 | 0.00 | 93 | 1015.0 |
| 20260904042511 | 26 | 186 | 0.0 | 0.0 | 0.00 | 0.00 | 0.00 | 92 | 1014.9 |
| 20260904042014 | 26 | 186 | 0.0 | 0.0 | 0.00 | 0.00 | 0.00 | 92 | 1014.9 |
| 20260904041527 | 26 | 186 | 0.0 | 0.0 | 0.00 | 0.00 | 0.00 | 92 | 1014.9 |
| 20260904041003 | 26 | 186 | 0.0 | 0.0 | 0.00 | 0.00 | 0.00 | 92 | 1014.9 |
| 20260904040502 | 26 | 186 | 0.0 | 0.0 | 0.00 | 0.00 | 0.00 | 92 | 1015.0 |
| 20260904040007 | 26 | 186 | 0.0 | 0.0 | 0.00 | 0.00 | 0.00 | 92 | 1015.1 |
| 20260904035504 | 26 | 186 | 0.0 | 0.0 | 0.00 | 0.00 | 0.00 | 91 | 1015.0 |
| 20260904035004 | 26 | 186 | 0.0 | 0.0 | 0.00 | 0.00 | 0.00 | 91 | 1015.0 |
| 20260904034516 | 26 | 186 | 0.0 | 0.0 | 0.00 | 0.00 | 0.00 | 92 | 1015.0 |
| 20260904034008 | 26 | 186 | 0.0 | 0.0 | 0.00 | 0.00 | 0.00 | 92 | 1015.1 |
| 20260904033508 | 26 | 186 | 0.0 | 0.0 | 0.00 | 0.00 | 0.00 | 92 | 1015.0 |
| 20260904033030 | 26 | 186 | 0.0 | 0.0 | 0.00 | 0.00 | 0.00 | 92 | 1015.1 |
| 20260904032509 | 26 | 186 | 0.0 | 0.0 | 0.00 | 0.00 | 0.00 | 92 | 1015.1 |
| 20260904032011 | 26 | 186 | 0.0 | 0.0 | 0.00 | 0.00 | 0.00 | 92 | 1015.3 |
| 20260904031525 | 26 | 186 | 0.0 | 0.0 | 0.00 | 0.00 | 0.00 | 92 | 1015.3 |
| 20260904031013 | 26 | 186 | 0.0 | 0.0 | 0.00 | 0.00 | 0.00 | 92 | 1015.3 |
| 20260904030518 | 26 | 186 | 0.0 | 3.2 | 0.00 | 0.00 | 0.00 | 92 | 1015.3 |
| 20260904030003 | 26 | 186 | 0.0 | 3.2 | 0.00 | 0.00 | 0.00 | 92 | 1015.3 |
| 20260904025503 | 26 | 166 | 0.0 | 0.0 | 0.00 | 0.00 | 0.00 | 92 | 1015.2 |
| 20260904025003 | 26 | 166 | 0.0 | 0.0 | 0.00 | 0.00 | 0.00 | 91 | 1015.1 |
| 20260904024508 | 26 | 128 | 0.0 | 0.0 | 0.00 | 0.00 | 0.00 | 91 | 1015.0 |
| 20260904024004 | 26 | 128 | 0.0 | 0.0 | 0.00 | 0.00 | 0.00 | 91 | 1014.9 |
| 20260904023507 | 26 | 128 | 0.0 | 0.0 | 0.00 | 0.00 | 0.00 | 92 | 1014.9 |
| 20260904023016 | 26 | 128 | 0.0 | 4.8 | 0.00 | 0.00 | 0.00 | 91 | 1014.8 |
| 20260904022509 | 26 | 169 | 0.0 | 4.8 | 0.00 | 0.00 | 0.00 | 91 | 1014.7 |
| 20260904022009 | 26 | 157 | 0.0 | 0.0 | 0.00 | 0.00 | 0.00 | 91 | 1014.7 |
| 20260904021527 | 26 | 163 | 0.0 | 0.0 | 0.00 | 0.00 | 0.00 | 91 | 1014.7 |
| 20260904021011 | 26 | 134 | 0.0 | 0.0 | 0.00 | 0.00 | 0.00 | 91 | 1014.7 |
| 20260904020512 | 26 | 134 | 0.0 | 0.0 | 0.00 | 0.00 | 0.00 | 91 | 1014.7 |
| 20260904020030 | 26 | 134 | 0.0 | 0.0 | 0.00 | 0.00 | 0.00 | 91 | 1014.7 |
| 20260904015513 | 26 | 134 | 0.0 | 0.0 | 0.00 | 0.00 | 0.00 | 91 | 1014.7 |
| 20260904015006 | 26 | 134 | 0.0 | 0.0 | 0.00 | 0.00 | 0.00 | 91 | 1014.6 |
| 20260904014508 | 26 | 134 | 0.0 | 0.0 | 0.00 | 0.00 | 0.00 | 90 | 1014.6 |
| 20260904014002 | 26 | 134 | 0.0 | 0.0 | 0.00 | 0.00 | 0.00 | 90 | 1014.5 |
| 20260904013503 | 26 | 134 | 0.0 | 0.0 | 0.00 | 0.00 | 0.00 | 90 | 1014.4 |
| 20260904013018 | 26 | 134 | 0.0 | 0.0 | 0.00 | 0.00 | 0.00 | 90 | 1014.4 |
| 20260904012507 | 26 | 134 | 0.0 | 0.0 | 0.00 | 0.00 | 0.00 | 90 | 1014.3 |
| 20260904012008 | 26 | 134 | 0.0 | 0.0 | 0.00 | 0.00 | 0.00 | 90 | 1014.2 |
| 20260904011523 | 26 | 134 | 0.0 | 0.0 | 0.00 | 0.00 | 0.00 | 89 | 1014.2 |
| 20260904011010 | 26 | 134 | 0.0 | 0.0 | 0.00 | 0.00 | 0.00 | 89 | 1014.1 |
| 20260904010512 | 27 | 134 | 0.0 | 0.0 | 0.00 | 0.00 | 0.00 | 89 | 1014.1 |
| 20260904010029 | 27 | 134 | 0.0 | 0.0 | 0.00 | 0.00 | 0.00 | 89 | 1014.1 |
| 20260904005519 | 27 | 134 | 0.0 | 0.0 | 0.00 | 0.00 | 0.00 | 89 | 1014.1 |
| 20260904005015 | 27 | 134 | 0.0 | 0.0 | 0.00 | 0.00 | 0.00 | 88 | 1014.1 |
| 20260904004531 | 27 | 134 | 0.0 | 0.0 | 0.00 | 0.00 | 0.00 | 87 | 1014.0 |
| 20260904004003 | 27 | 134 | 0.0 | 0.0 | 0.00 | 0.00 | 0.00 | 87 | 1014.0 |
| 20260904003503 | 27 | 117 | 0.0 | 0.0 | 0.00 | 0.00 | 0.00 | 87 | 1013.9 |
| 20260904003012 | 27 | 117 | 0.0 | 0.0 | 0.00 | 0.00 | 0.00 | 86 | 1013.8 |
| 20260904002507 | 27 | 117 | 0.0 | 0.0 | 0.00 | 0.00 | 0.00 | 86 | 1013.7 |
| 20260904002008 | 27 | 117 | 0.0 | 0.0 | 0.00 | 0.00 | 0.00 | 85 | 1013.7 |
| 20260904001521 | 27 | 117 | 0.0 | 0.0 | 0.00 | 0.00 | 0.00 | 85 | 1013.6 |
| 20260904001008 | 27 | 123 | 0.0 | 0.0 | 0.00 | 0.00 | 0.00 | 84 | 1013.7 |
| 20260904000515 | 28 | 134 | 0.0 | 0.0 | 0.00 | 0.00 | 0.00 | 84 | 1013.6 |
| 20260904000027 | 28 | 134 | 0.0 | 0.0 | 0.00 | 0.00 | 0.00 | 83 | 1013.4 |
| 20260903235514 | 28 | 134 | 0.0 | 0.0 | 0.00 | 0.00 | 0.00 | 83 | 1013.3 |
| 20260903235012 | 28 | 134 | 0.0 | 0.0 | 0.00 | 0.00 | 0.00 | 83 | 1013.2 |
| 20260903234527 | 28 | 134 | 0.0 | 6.4 | 0.00 | 0.00 | 0.00 | 82 | 1013.0 |
| 20260903234016 | 28 | 122 | 0.0 | 6.4 | 0.00 | 0.00 | 0.00 | 82 | 1013.1 |
| 20260903233507 | 28 | 138 | 3.2 | 6.4 | 0.00 | 0.00 | 0.00 | 81 | 1013.1 |
| 20260903233007 | 28 | 110 | 1.6 | 8.0 | 0.00 | 0.00 | 0.00 | 81 | 1013.2 |
| 20260903232506 | 28 | 114 | 4.8 | 9.7 | 0.00 | 0.00 | 0.00 | 80 | 1013.3 |
| 20260903232007 | 28 | 111 | 4.8 | 11.3 | 0.00 | 0.00 | 0.00 | 79 | 1013.2 |
| 20260903231517 | 28 | 103 | 4.8 | 11.3 | 0.00 | 0.00 | 0.00 | 79 | 1013.2 |
| 20260903231010 | 28 | 123 | 6.4 | 11.3 | 0.00 | 0.00 | 0.00 | 78 | 1013.2 |
| 20260903230509 | 29 | 113 | 4.8 | 11.3 | 0.00 | 0.00 | 0.00 | 76 | 1013.1 |
| 20260903230042 | 29 | 105 | 8.0 | 14.5 | 0.00 | 0.00 | 0.00 | 75 | 1013.0 |
| 20260903225518 | 30 | 103 | 6.4 | 14.5 | 0.00 | 0.00 | 0.00 | 73 | 1013.1 |
| 20260903225013 | 30 | 126 | 8.0 | 12.9 | 0.00 | 0.00 | 0.00 | 72 | 1013.1 |
| 20260903224530 | 30 | 119 | 0.0 | 4.8 | 0.00 | 0.00 | 0.00 | 70 | 1013.0 |
| 20260903224015 | 31 | 123 | 0.0 | 6.4 | 0.00 | 0.00 | 0.00 | 70 | 1013.2 |
| 20260903223517 | 31 | 109 | 1.6 | 9.7 | 0.00 | 0.00 | 0.00 | 69 | 1013.2 |
| 20260903223032 | 31 | 101 | 4.8 | 9.7 | 0.00 | 0.00 | 0.00 | 67 | 1013.2 |
| 20260903222504 | 31 | 89 | 3.2 | 12.9 | 0.00 | 0.00 | 0.00 | 67 | 1013.2 |
| 20260903222003 | 31 | 62 | 1.6 | 12.9 | 0.00 | 0.00 | 0.00 | 67 | 1013.1 |
| 20260903221513 | 31 | 33 | 4.8 | 12.9 | 0.00 | 0.00 | 0.00 | 67 | 1013.3 |
| 20260903221006 | 31 | 66 | 1.6 | 6.4 | 0.00 | 0.00 | 0.00 | 70 | 1013.4 |
| 20260903220510 | 31 | 74 | 0.0 | 6.4 | 0.00 | 0.00 | 0.00 | 70 | 1013.4 |
| 20260903220023 | 31 | 42 | 3.2 | 4.8 | 0.00 | 0.00 | 0.00 | 70 | 1013.4 |
| 20260903215512 | 31 | 105 | 0.0 | 4.8 | 0.00 | 0.00 | 0.00 | 71 | 1013.4 |
| 20260903215012 | 31 | 103 | 3.2 | 3.2 | 0.00 | 0.00 | 0.00 | 69 | 1013.5 |
| 20260903214537 | 31 | 113 | 1.6 | 8.0 | 0.00 | 0.00 | 0.00 | 69 | 1013.4 |
| 20260903214015 | 31 | 94 | 1.6 | 9.7 | 0.00 | 0.00 | 0.00 | 67 | 1013.3 |
| 20260903213514 | 31 | 72 | 4.8 | 9.7 | 0.00 | 0.00 | 0.00 | 66 | 1013.4 |
| 20260903213029 | 31 | 38 | 1.6 | 8.0 | 0.00 | 0.00 | 0.00 | 65 | 1013.4 |
| 20260903212514 | 31 | 41 | 3.2 | 8.0 | 0.00 | 0.00 | 0.00 | 65 | 1013.5 |
| 20260903212017 | 32 | 66 | 3.2 | 8.0 | 0.00 | 0.00 | 0.00 | 65 | 1013.5 |
| 20260903211511 | 32 | 21 | 1.6 | 6.4 | 0.00 | 0.00 | 0.00 | 65 | 1013.4 |
| 20260903211006 | 32 | 33 | 1.6 | 6.4 | 0.00 | 0.00 | 0.00 | 65 | 1013.4 |
| 20260903210506 | 32 | 40 | 1.6 | 4.8 | 0.00 | 0.00 | 0.00 | 65 | 1013.5 |
| 20260903210020 | 32 | 22 | 0.0 | 6.4 | 0.00 | 0.00 | 0.00 | 64 | 1013.5 |
| 20260903205508 | 32 | 351 | 3.2 | 6.4 | 0.00 | 0.00 | 0.00 | 64 | 1013.6 |
| 20260903205010 | 31 | 89 | 3.2 | 8.0 | 0.00 | 0.00 | 0.00 | 64 | 1013.6 |
| 20260903204526 | 32 | 19 | 1.6 | 8.0 | 0.00 | 0.00 | 0.00 | 64 | 1013.5 |
| 20260903204015 | 32 | 35 | 3.2 | 8.0 | 0.00 | 0.00 | 0.00 | 62 | 1013.6 |
| 20260903203503 | 32 | 18 | 1.6 | 6.4 | 0.00 | 0.00 | 0.00 | 63 | 1013.7 |
| 20260903203005 | 32 | 89 | 4.8 | 6.4 | 0.00 | 0.00 | 0.00 | 63 | 1013.8 |
| 20260903202503 | 31 | 51 | 0.0 | 6.4 | 0.00 | 0.00 | 0.00 | 65 | 1013.9 |
| 20260903202004 | 32 | 109 | 1.6 | 6.4 | 0.00 | 0.00 | 0.00 | 67 | 1014.0 |
| 20260903201512 | 32 | 94 | 3.2 | 11.3 | 0.00 | 0.00 | 0.00 | 64 | 1013.9 |
| 20260903201005 | 32 | 86 | 3.2 | 11.3 | 0.00 | 0.00 | 0.00 | 65 | 1014.0 |
| 20260903200506 | 32 | 95 | 3.2 | 9.7 | 0.00 | 0.00 | 0.00 | 65 | 1014.1 |
| 20260903200017 | 32 | 55 | 3.2 | 9.7 | 0.00 | 0.00 | 0.00 | 66 | 1014.3 |
| 20260903195506 | 31 | 30 | 4.8 | 9.7 | 0.00 | 0.00 | 0.00 | 66 | 1014.3 |
| 20260903195011 | 31 | 119 | 3.2 | 11.3 | 0.00 | 0.00 | 0.00 | 67 | 1014.4 |
| 20260903194522 | 31 | 93 | 4.8 | 11.3 | 0.00 | 0.00 | 0.00 | 65 | 1014.4 |
| 20260903194011 | 31 | 9 | 3.2 | 9.7 | 0.00 | 0.00 | 0.00 | 67 | 1014.4 |
| 20260903193516 | 31 | 45 | 4.8 | 9.7 | 0.00 | 0.00 | 0.00 | 64 | 1014.5 |
| 20260903193027 | 31 | 19 | 3.2 | 8.0 | 0.00 | 0.00 | 0.00 | 66 | 1014.6 |
| 20260903192504 | 31 | 39 | 3.2 | 9.7 | 0.00 | 0.00 | 0.00 | 65 | 1014.6 |
| 20260903192003 | 31 | 35 | 4.8 | 9.7 | 0.00 | 0.00 | 0.00 | 64 | 1014.6 |
| 20260903191509 | 32 | 30 | 4.8 | 11.3 | 0.00 | 0.00 | 0.00 | 66 | 1014.7 |
| 20260903191002 | 31 | 86 | 0.0 | 11.3 | 0.00 | 0.00 | 0.00 | 68 | 1014.6 |
| 20260903190507 | 31 | 62 | 4.8 | 9.7 | 0.00 | 0.00 | 0.00 | 65 | 1014.7 |
| 20260903190015 | 31 | 342 | 1.6 | 12.9 | 0.00 | 0.00 | 0.00 | 68 | 1014.8 |
| 20260903185506 | 31 | 276 | 0.0 | 12.9 | 0.00 | 0.00 | 0.00 | 66 | 1014.9 |
| 20260903185008 | 31 | 67 | 1.6 | 11.3 | 0.00 | 0.00 | 0.00 | 68 | 1014.9 |
| 20260903184520 | 31 | 168 | 3.2 | 4.8 | 0.00 | 0.00 | 0.00 | 68 | 1015.0 |
| 20260903184011 | 31 | 50 | 1.6 | 4.8 | 0.00 | 0.00 | 0.00 | 73 | 1015.1 |
| 20260903183511 | 31 | 105 | 1.6 | 4.8 | 0.00 | 0.00 | 0.00 | 70 | 1015.2 |
| 20260903183028 | 30 | 48 | 1.6 | 6.4 | 0.00 | 0.00 | 0.00 | 71 | 1015.3 |
| 20260903182514 | 30 | 79 | 3.2 | 8.0 | 0.00 | 0.00 | 0.00 | 71 | 1015.4 |
| 20260903182015 | 30 | 32 | 3.2 | 9.7 | 0.00 | 0.00 | 0.00 | 70 | 1015.5 |
| 20260903181505 | 30 | 340 | 4.8 | 11.3 | 0.00 | 0.00 | 0.00 | 71 | 1015.6 |
| 20260903181004 | 30 | 42 | 3.2 | 11.3 | 0.00 | 0.00 | 0.00 | 72 | 1015.7 |
| 20260903180504 | 30 | 66 | 6.4 | 11.3 | 0.00 | 0.00 | 0.00 | 70 | 1015.7 |
| 20260903180034 | 30 | 83 | 4.8 | 12.9 | 0.00 | 0.00 | 0.00 | 71 | 1015.7 |
| 20260903175503 | 30 | 52 | 4.8 | 14.5 | 0.00 | 0.00 | 0.00 | 71 | 1015.7 |
| 20260903175006 | 30 | 107 | 8.0 | 16.1 | 0.00 | 0.00 | 0.00 | 70 | 1015.8 |
| 20260903174518 | 30 | 142 | 8.0 | 20.9 | 0.00 | 0.00 | 0.00 | 70 | 1015.8 |
| 20260903174007 | 30 | 97 | 9.7 | 20.9 | 0.00 | 0.00 | 0.00 | 72 | 1015.9 |
| 20260903173511 | 30 | 80 | 11.3 | 16.1 | 0.00 | 0.00 | 0.00 | 72 | 1015.9 |
| 20260903173032 | 30 | 67 | 8.0 | 16.1 | 0.00 | 0.00 | 0.00 | 71 | 1015.9 |
| 20260903172512 | 30 | 46 | 8.0 | 12.9 | 0.00 | 0.00 | 0.00 | 72 | 1016.0 |
| 20260903172013 | 30 | 88 | 6.4 | 11.3 | 0.00 | 0.00 | 0.00 | 72 | 1015.9 |
| 20260903171530 | 30 | 16 | 8.0 | 14.5 | 0.00 | 0.00 | 0.00 | 73 | 1016.0 |
| 20260903171014 | 30 | 96 | 9.7 | 14.5 | 0.00 | 0.00 | 0.00 | 74 | 1016.0 |
| 20260903170506 | 30 | 84 | 9.7 | 14.5 | 0.00 | 0.00 | 0.00 | 73 | 1016.2 |
| 20260903170009 | 30 | 66 | 3.2 | 12.9 | 0.00 | 0.00 | 0.00 | 75 | 1016.2 |
| 20260903165504 | 30 | 92 | 4.8 | 9.7 | 0.00 | 0.00 | 0.00 | 76 | 1016.3 |
| 20260903165007 | 30 | 88 | 4.8 | 11.3 | 0.00 | 0.00 | 0.00 | 77 | 1016.3 |
| 20260903164518 | 29 | 83 | 4.8 | 12.9 | 0.00 | 0.00 | 0.00 | 76 | 1016.3 |
| 20260903164012 | 29 | 31 | 4.8 | 12.9 | 0.00 | 0.00 | 0.00 | 77 | 1016.4 |
| 20260903163508 | 29 | 15 | 3.2 | 14.5 | 0.00 | 0.00 | 0.00 | 75 | 1016.3 |
| 20260903163024 | 29 | 23 | 4.8 | 14.5 | 0.00 | 0.00 | 0.00 | 77 | 1016.4 |
| 20260903162511 | 29 | 74 | 3.2 | 16.1 | 0.00 | 0.00 | 0.00 | 77 | 1016.5 |